Schefferville, Canada

3:07 AM EDT on August 17, 2017 (GMT -0400)
Schefferville

Weather History for CYKL - January, 2013

Change the Weather History Date:

Wednesday, January 2, 2013

  Actual Average Record
Temperature  
Mean Temperature -0 °F -  
Max Temperature 4 °F -1 °F 24 °F (2011)
Min Temperature -5 °F -19 °F -40 °F (2008)
Degree Days  
Heating Degree Days 66    
Moisture  
Dew Point -1 °F    
Average Humidity 85    
Maximum Humidity 92    
Minimum Humidity 64    
Precipitation  
Precipitation 0.00 in 0.06 in - ()
Sea Level Pressure  
Sea Level Pressure 29.57 in    
Wind  
Wind Speed 17 mph ()    
Max Wind Speed 23 mph    
Max Gust Speed 33 mph    
Visibility 4.1 miles    
Events Snow    
Averages and records for this station are not official NWS values.
T = Trace of Precipitation, MM = Missing Value Source: Averaged Metar Reports

Daily Weather History Graph

Daily Weather History Graph

Search for Another Location

Airport or City:

Trip Planner

Search our weather history database for the weather conditions in past years. The results will help you decide how hot, cold, wet, or windy it might be!

Date:

Astronomy

Jan. 02, 2013 Rise Set
Actual Time 7:50 AM EST 3:12 PM EST
Civil Twilight 7:06 AM EST 3:57 PM EST
Nautical Twilight 6:19 AM EST 4:44 PM EST
Astronomical Twilight 5:35 AM EST 5:28 PM EST
Moon 9:41 PM EST (1/2) 9:35 AM EST (1/2)
Length of Visible Light 8h 51m
Length of Day
7h 22m
Waning Gibbous, 75% of the Moon is Illuminated
Jan 2
Waning Gibbous
Jan 4
Last Quarter
Jan 11
New
Jan 18
First Quarter
Jan 26
Full

Hourly Weather History & Observations

Time (EST) Temp. Windchill Dew Point Humidity Pressure Visibility Wind Dir Wind Speed Gust Speed Precip Events Conditions
12:00 AM 3.2 °F -15.9 °F -0.4 °F 85% 29.37 in 6.0 mi NNW 16.1 mph 24.2 mph N/A Snow Light Snow
12:15 AM 3.2 °F -16.5 °F -0.4 °F 85% 29.37 in 5.0 mi NNW 17.3 mph 26.5 mph N/A Snow Light Snow
12:24 AM 3.2 °F -15.9 °F -0.4 °F 85% 29.37 in 2.5 mi NNW 16.1 mph 23.0 mph N/A Snow Light Snow
12:47 AM 3.2 °F -16.5 °F -0.4 °F 85% 29.38 in 1.8 mi NNW 17.3 mph 28.8 mph N/A Snow Light Snow
1:00 AM 3 °F - -1 °F 74% 29.38 in - NNW 17.3 mph - -  
1:00 AM 3.2 °F -16.5 °F -0.4 °F 85% 29.38 in 1.8 mi NNW 17.3 mph 26.5 mph N/A Snow Light Snow
1:18 AM 3.2 °F -14.6 °F -0.4 °F 85% 29.39 in 2.0 mi NNW 13.8 mph 23.0 mph N/A Snow Light Snow
1:44 AM 3.2 °F -17.1 °F -0.4 °F 85% 29.39 in 3.0 mi NNW 18.4 mph 26.5 mph N/A Snow Light Snow
1:55 AM 3.2 °F -17.1 °F -0.4 °F 85% 29.39 in 6.0 mi NNW 18.4 mph 26.5 mph N/A Snow Light Snow
2:00 AM 3.2 °F -17.6 °F -0.4 °F 85% 29.39 in 6.0 mi NNW 19.6 mph 26.5 mph N/A Snow Light Snow
2:05 AM 3.2 °F -16.5 °F -0.4 °F 85% 29.39 in 5.0 mi NNW 17.3 mph 26.5 mph N/A Snow Light Snow
2:26 AM 3.2 °F -16.5 °F -0.4 °F 85% 29.39 in 4.0 mi NNW 17.3 mph 26.5 mph N/A Snow Light Snow
2:38 AM 3.2 °F -16.5 °F -0.4 °F 85% 29.40 in 3.0 mi NNW 17.3 mph 24.2 mph N/A Snow Light Snow
2:56 AM 3.2 °F -15.9 °F -0.4 °F 85% 29.40 in 2.5 mi NNW 16.1 mph 28.8 mph N/A Snow Light Snow
3:00 AM 3.2 °F -16.5 °F -0.4 °F 85% 29.40 in 2.0 mi NNW 17.3 mph 25.3 mph N/A Snow Light Snow
3:10 AM 3.2 °F -17.1 °F -0.4 °F 85% 29.40 in 3.0 mi NNW 18.4 mph 27.6 mph N/A Snow Light Snow
3:17 AM 3.2 °F -17.1 °F -0.4 °F 85% 29.41 in 6.0 mi NNW 18.4 mph 26.5 mph N/A Snow Light Snow
3:30 AM 3.2 °F -16.5 °F -0.4 °F 85% 29.41 in 5.0 mi NNW 17.3 mph 28.8 mph N/A Snow Light Snow
3:52 AM 3.2 °F -17.1 °F -0.4 °F 85% 29.41 in 2.2 mi NNW 18.4 mph 26.5 mph N/A Snow Light Snow
4:00 AM 3 °F - -2 °F 72% 29.41 in - NNW 19.6 mph - -  
4:00 AM 3.2 °F -17.6 °F -0.4 °F 85% 29.40 in 2.0 mi NNW 19.6 mph 26.5 mph N/A Snow Light Snow
4:12 AM 3.2 °F -17.1 °F -0.4 °F 85% 29.41 in 3.0 mi NNW 18.4 mph 27.6 mph N/A Snow Light Snow
4:33 AM 3.2 °F -16.5 °F -0.4 °F 85% 29.41 in 1.8 mi NNW 17.3 mph 27.6 mph N/A Snow Light Snow
4:43 AM 3.2 °F -17.1 °F -0.4 °F 85% 29.42 in 2.0 mi NNW 18.4 mph 28.8 mph N/A Snow Light Snow
5:00 AM 3.2 °F -17.1 °F -0.4 °F 85% 29.42 in 3.0 mi NNW 18.4 mph 26.5 mph N/A Snow Light Snow
5:23 AM 3.2 °F -17.1 °F -0.4 °F 85% 29.43 in 2.5 mi NNW 18.4 mph 29.9 mph N/A Snow Light Snow
5:31 AM 3.2 °F -16.5 °F -0.4 °F 85% 29.43 in 1.8 mi NNW 17.3 mph 28.8 mph N/A Snow Light Snow
5:37 AM 3.2 °F -18.6 °F 1.4 °F 92% 29.43 in 2.0 mi NNW 21.9 mph 28.8 mph N/A Snow Light Snow
5:39 AM 3.2 °F -18.6 °F 1.4 °F 92% 29.43 in 2.2 mi NNW 21.9 mph 28.8 mph N/A Snow Light Snow
6:00 AM 3.2 °F -17.1 °F 1.4 °F 92% 29.44 in 2.2 mi NNW 18.4 mph 28.8 mph N/A Snow Light Snow
6:14 AM 3.2 °F -15.9 °F 1.4 °F 92% 29.45 in 3.0 mi NNW 16.1 mph 31.1 mph N/A Snow Light Snow
6:31 AM 3.2 °F -18.6 °F 1.4 °F 92% 29.46 in 7.0 mi NNW 21.9 mph 27.6 mph N/A Snow Light Snow
6:40 AM 3.2 °F -19.0 °F 1.4 °F 92% 29.46 in 5.0 mi NNW 23.0 mph 31.1 mph N/A Snow Light Snow
6:50 AM 3.2 °F -16.5 °F 1.4 °F 92% 29.47 in 8.0 mi NNW 17.3 mph 28.8 mph N/A Snow Light Snow
7:00 AM 3.2 °F -17.1 °F 1.4 °F 92% 29.47 in 9.0 mi NNW 18.4 mph 31.1 mph N/A Snow Light Snow
8:00 AM 3.2 °F -17.1 °F -0.4 °F 85% 29.50 in 9.0 mi NNW 18.4 mph 25.3 mph N/A Snow Light Snow
8:08 AM 3.2 °F -15.9 °F -0.4 °F 85% 29.50 in 9.0 mi NNW 16.1 mph 25.3 mph N/A   Overcast
8:54 AM 3.2 °F -17.6 °F -0.4 °F 85% 29.52 in 8.0 mi NNW 19.6 mph 32.2 mph N/A Snow Light Snow
9:00 AM 3.2 °F -18.6 °F -0.4 °F 85% 29.52 in 9.0 mi NNW 21.9 mph 32.2 mph N/A Snow Light Snow
9:03 AM 3.2 °F -18.6 °F -0.4 °F 85% 29.52 in 9.0 mi NNW 21.9 mph 31.1 mph N/A   Overcast
10:00 AM 3 °F - -1 °F 74% 29.54 in - NNW 19.6 mph - -  
10:00 AM 3.2 °F -16.5 °F -0.4 °F 85% 29.54 in 9.0 mi NNW 17.3 mph 32.2 mph N/A   Overcast
11:00 AM 3.2 °F -17.6 °F -0.4 °F 85% 29.56 in 8.0 mi NNW 19.6 mph 28.8 mph N/A   Overcast
11:30 AM 3.2 °F -18.1 °F 1.4 °F 92% 29.56 in 5.0 mi NNW 20.7 mph 33.4 mph N/A   Overcast
11:47 AM 3.2 °F -18.6 °F 1.4 °F 92% 29.57 in 5.0 mi NNW 21.9 mph 33.4 mph N/A Snow Light Snow
11:56 AM 5.0 °F -14.7 °F 1.4 °F 85% 29.57 in 6.0 mi NNW 18.4 mph 28.8 mph N/A Snow Light Snow
11:58 AM 5.0 °F -15.7 °F 1.4 °F 85% 29.57 in 6.0 mi NNW 20.7 mph 28.8 mph N/A   Overcast
12:00 PM 5.0 °F -15.7 °F 1.4 °F 85% 29.57 in 6.0 mi NNW 20.7 mph 28.8 mph N/A   Overcast
12:01 PM 5.0 °F -15.2 °F 1.4 °F 85% 29.57 in 5.0 mi NNW 19.6 mph 28.8 mph N/A   Overcast
12:04 PM 5.0 °F -13.6 °F 1.4 °F 85% 29.57 in 5.0 mi NNW 16.1 mph 28.8 mph N/A Snow Light Snow
12:38 PM 5.0 °F -13.0 °F 1.4 °F 85% 29.57 in 2.2 mi NNW 15.0 mph 28.8 mph N/A Snow Light Snow
1:00 PM 4 °F - -0 °F 75% 29.59 in - NNW 18.4 mph - -  
1:00 PM 5.0 °F -13.6 °F 1.4 °F 85% 29.58 in 2.2 mi NNW 16.1 mph 26.5 mph N/A Snow Light Snow
1:16 PM 5.0 °F -12.3 °F 1.4 °F 85% 29.59 in 1.8 mi NNW 13.8 mph 25.3 mph N/A Snow Light Snow
1:26 PM 3.2 °F -15.3 °F 1.4 °F 92% 29.59 in 2.2 mi NNW 15.0 mph 25.3 mph N/A Snow Light Snow
1:33 PM 3.2 °F -18.6 °F 1.4 °F 92% 29.60 in 1.8 mi NNW 21.9 mph 31.1 mph N/A Snow Light Snow
1:44 PM 3.2 °F -14.6 °F -0.4 °F 85% 29.60 in 2.0 mi NNW 13.8 mph 31.1 mph N/A Snow Light Snow
2:00 PM 3.2 °F -17.1 °F -0.4 °F 85% 29.61 in 2.5 mi NNW 18.4 mph 26.5 mph N/A Snow Light Snow
2:35 PM 3.2 °F -18.1 °F -0.4 °F 85% 29.62 in 3.0 mi NNW 20.7 mph 29.9 mph N/A Snow Light Snow
3:00 PM 3.2 °F -15.9 °F -0.4 °F 85% 29.64 in 4.0 mi NNW 16.1 mph 27.6 mph N/A Snow Light Snow
3:35 PM 3.2 °F -16.5 °F -0.4 °F 85% 29.65 in 6.0 mi NNW 17.3 mph 25.3 mph N/A Snow Light Snow
3:50 PM 3.2 °F -14.6 °F -0.4 °F 85% 29.66 in 5.0 mi NNW 13.8 mph 24.2 mph N/A Snow Light Snow
4:00 PM 3 °F - -2 °F 72% 29.67 in - NNW 20.7 mph - -  
4:00 PM 3.2 °F -16.5 °F -0.4 °F 85% 29.66 in 3.0 mi NNW 17.3 mph 28.8 mph N/A Snow Light Snow
4:46 PM 3.2 °F -15.9 °F -0.4 °F 85% 29.69 in 6.0 mi NNW 16.1 mph 26.5 mph N/A Snow Light Snow
5:00 PM 3.2 °F -17.1 °F -2.2 °F 78% 29.69 in 7.0 mi NNW 18.4 mph 29.9 mph N/A Snow Light Snow
5:33 PM 1.4 °F -19.9 °F -0.4 °F 92% 29.71 in 5.0 mi NNW 19.6 mph 28.8 mph N/A Snow Light Snow
6:00 PM 1.4 °F -18.8 °F -0.4 °F 92% 29.72 in 4.0 mi NNW 17.3 mph 27.6 mph N/A Snow Light Snow
6:34 PM 1.4 °F -21.0 °F -0.4 °F 92% 29.73 in 2.5 mi NNW 21.9 mph 29.9 mph N/A Snow Light Snow
7:00 PM 2 °F - -3 °F 70% 29.75 in - NNW 19.6 mph - -  
7:00 PM 1.4 °F -18.8 °F -2.2 °F 85% 29.74 in 2.0 mi NNW 17.3 mph 29.9 mph N/A Snow Light Snow
7:21 PM 1.4 °F -21.0 °F -2.2 °F 85% 29.75 in 1.8 mi NNW 21.9 mph 27.6 mph N/A Snow Light Snow
8:00 PM 1.4 °F -18.2 °F -2.2 °F 85% 29.77 in 1.5 mi NNW 16.1 mph 31.1 mph N/A Snow Light Snow
8:13 PM -0.4 °F -23.3 °F -4.0 °F 85% 29.78 in 2.0 mi NNW 21.9 mph 33.4 mph N/A Snow Light Snow
8:28 PM -0.4 °F -22.8 °F -4.0 °F 85% 29.78 in 3.0 mi NNW 20.7 mph 33.4 mph N/A Snow Light Snow
8:50 PM -0.4 °F -22.8 °F -5.8 °F 78% 29.78 in 2.5 mi NNW 20.7 mph 32.2 mph N/A Snow Light Snow
9:00 PM -0.4 °F -21.7 °F -5.8 °F 78% 29.78 in 2.5 mi NNW 18.4 mph 27.6 mph N/A Snow Light Snow
9:17 PM -2.2 °F -23.5 °F -5.8 °F 85% 29.80 in 3.0 mi NNW 17.3 mph 32.2 mph N/A Snow Light Snow
10:00 PM -4 °F - -10 °F 64% 29.82 in - NNW 19.6 mph - -  
10:00 PM -4.0 °F -27.6 °F -7.6 °F 85% 29.81 in 4.0 mi NNW 20.7 mph 28.8 mph N/A Snow Light Snow
10:19 PM -4.0 °F -23.7 °F -9.4 °F 78% 29.82 in 2.2 mi NNW 13.8 mph 24.2 mph N/A Snow Light Snow
10:22 PM -4.0 °F -25.8 °F -9.4 °F 78% 29.82 in 1.8 mi NNW 17.3 mph 25.3 mph N/A Snow Light Snow
10:53 PM -4.0 °F -25.8 °F -7.6 °F 85% 29.82 in 2.0 mi NNW 17.3 mph 26.5 mph N/A Snow Light Snow
10:59 PM -4.0 °F -28.1 °F -9.4 °F 78% 29.82 in 3.0 mi NNW 21.9 mph 29.9 mph N/A Snow Light Snow
11:00 PM -4.0 °F -27.6 °F -9.4 °F 78% 29.82 in 3.0 mi NNW 20.7 mph 29.9 mph N/A Snow Light Snow
11:13 PM -5.8 °F -29.4 °F -9.4 °F 84% 29.83 in 6.0 mi NNW 19.6 mph 29.9 mph N/A Snow Light Snow
11:15 PM -5.8 °F -28.8 °F -9.4 °F 84% 29.83 in 6.0 mi NNW 18.4 mph 29.9 mph N/A   Haze
11:38 PM -5.8 °F -29.9 °F -9.4 °F 84% 29.83 in 5.0 mi NNW 20.7 mph 28.8 mph N/A   Haze
11:51 PM -5.8 °F -26.8 °F -9.4 °F 84% 29.83 in 6.0 mi NNW 15.0 mph 24.2 mph N/A   Haze